User: anonymous   Login
Location: Alexo
(52.4665°N, 115.7844°W)
Time: 21:50:18
(UTC+00:00)
Language:

Tiangong - Orbit

View from above orbital plane
View from above orbital plane
View from above satellite
View from above satellite

Ground track
Ground track

The orbit data is extracted from the following two-line orbital elements,

1 48274U 21035A   22022.06937483  .00015449  00000-0  18228-3 0  9991
2 48274  41.4705  29.2204 0002602 132.6209 267.9034 15.61005712 41925
Epoch (UTC): 22 January 2022 01:39:53
Eccentricity: 0.0002602
inclination: 41.4705°
perigee height: 383 km
apogee height: 386 km
right ascension of ascending node: 29.2204°
argument of perigee: 132.6209°
revolutions per day: 15.61005712
mean anomaly at epoch: 267.9034°
orbit number at epoch: 4192

The dashed part of the orbit path shows where the satellite is in the earth's shadow,  

DLR